Ana Sayfa
METAR-TAF:

METAR-TAF

Havaalanları :

Los Alamos, New Mexico, Amerika Birleşik Devletleri

Enlem: 35-53N, Boylam: 106-17W, yükseklik: 2179 m

Güncel hava durumu gözlemi

Rapor saat 21:35 UTC de 28 dakika önce yapıldı.
Rüzgar güney/güneybatıdan 5 kt
Sıcaklık 4°C
Nem 56%
Basınç 1023 hPa
Görüş mesafesi: 16.1 km
Açık gökyüzü

METAR: KLAM 112135Z AUTO 20005KT 10SM CLR 04/M04 A3022 RMK AO2 T00381036

Saat: 15:03 (22:03 UTC)


TAF: eksik

4.000'den fazla havaalanı için hava durumu gözlemleri ve tahminleri (METAR ve TAF raporları).

Kullanılabilir istasyonlar harita üzerinde sarı ve kırmızı noktalarla gösterilir.

İstasyonun adını görmek için fareyi noktanın üzerinde gezdirin.

Sonrasında hava gözlem ve tahminlerini görmek için tıklayın.

Haritayı değiştirmek için: yaklaştırmak için siyah artı işaretli yeşil düğmeye ve uzaklaştırmak için de eksi işaretli düğmeye hızla tıklayın; bitişik haritalar için yeşil okları kullanın.


METAR-TAF: